Dewpoint
-4 -4 -4 -4 -3 -3 -3 -3 -3 -3 -3 -3 -3 -3 -3 -3 -4 -5 -3 -1 -1 -3 -6 -12 -9 -2 0 2 2 1 -1 -5 0 -1 2 2 1 2 2 2 0 -3 1
-7 -8 -8 -8 -7 -6 -5 -5 -5 -5 -5 -4 -3 -3 -3 -3 -3 -3 -3 -3 -1 -1 -2 -4 -9 -11 -7 -2 1 0 -1 -9 -7 -7 -2 -1 -2 -1 -0 -0 -5 -7 1
-6 -6 -7 -9 -9 -9 -8 -7 -6 -7 -7 -6 -5 -4 -4 -4 -4 -4 -4 -3 -3 -2 -0 -0 -2 -6 -11 -11 -7 -3 -3 -10 -11 -10 -10 -8 -12 -13 -12 -13 -16 -11 -2
-7 -9 -10 -10 -9 -8 -8 -8 -7 -7 -7 -7 -7 -7 -7 -6 -6 -5 -3 -2 -2 -2 -2 -1 0 -0 -4 -8 -12 -12 -10 -12 -14 -14 -15 -17 -18 -19 -21 -21 -21 -20 -8
-11 -9 -8 -7 -6 -6 -5 -5 -5 -5 -5 -6 -6 -7 -7 -7 -6 -4 -3 -2 -2 -2 -2 -2 -2 -1 0 -3 -7 -10 -12 -13 -14 -14 -15 -17 -18 -20 -22 -22 -23 -20 -18
-8 -6 -6 -5 -5 -5 -5 -5 -5 -5 -5 -5 -5 -5 -5 -6 -6 -5 -4 -3 -2 -2 -3 -2 -2 -1 -0 0 -1 -6 -9 -11 -13 -13 -14 -15 -17 -19 -21 -22 -22 -21 -16
-6 -5 -5 -5 -5 -5 -5 -5 -5 -5 -5 -5 -5 -4 -4 -4 -4 -3 -3 -3 -3 -3 -3 -2 -2 -2 -0 0 0 -1 -5 -8 -11 -11 -12 -13 -15 -17 -20 -21 -22 -21 -19
-5 -5 -6 -6 -6 -5 -5 -5 -5 -5 -5 -4 -4 -4 -4 -5 -4 -4 -4 -4 -3 -2 -2 -2 -2 -1 -0 0 0 0 -1 -4 -6 -9 -11 -12 -13 -15 -17 -19 -20 -19 -19
-6 -6 -6 -5 -5 -6 -6 -6 -5 -6 -5 -5 -4 -4 -5 -6 -6 -6 -6 -7 -7 -6 -5 -3 -2 -1 -1 -1 -0 -0 -1 -1 -3 -5 -7 -10 -11 -12 -14 -16 -19 -19 -18
-6 -6 -6 -6 -6 -6 -7 -7 -7 -7 -7 -7 -7 -6 -6 -6 -6 -6 -6 -6 -6 -6 -7 -7 -6 -6 -5 -4 -2 -2 -2 -2 -2 -2 -4 -7 -9 -9 -11 -14 -17 -18 -17
-5 -7 -8 -8 -8 -7 -6 -5 -5 -5 -4 -5 -5 -6 -7 -8 -8 -7 -7 -6 -6 -6 -6 -6 -6 -6 -6 -5 -4 -3 -3 -2 -2 -2 -3 -5 -7 -8 -10 -12 -15 -17 -17
-10 -10 -11 -9 -7 -6 -4 -3 -3 -3 -4 -4 -4 -4 -3 -3 -5 -4 -4 -3 -4 -4 -4 -5 -5 -4 -4 -3 -3 -3 -3 -2 -2 -2 -3 -4 -5 -7 -8 -10 -12 -14 -16
-10 -9 -10 -11 -9 -7 -4 -3 -3 -3 -3 -4 -6 -5 -3 -3 -3 -2 -2 -2 -2 -2 -2 -2 -2 -2 -2 -2 -1 -1 -1 -2 -2 -2 -2 -3 -4 -5 -6 -7 -9 -11 -13
-12 -14 -16 -15 -15 -11 -6 -3 -4 -4 -4 -4 -6 -5 -3 -3 -3 -3 -3 -2 -2 -2 -2 -2 -2 -1 -1 -1 -1 -2 -1 -1 -1 -2 -2 -2 -3 -4 -5 -6 -7 -7 -5
-15 -16 -16 -15 -16 -17 -15 -9 -5 -4 -3 -4 -4 -4 -3 -3 -3 -2 -3 -3 -4 -3 -3 -3 -3 -3 -4 -2 -1 -1 -1 -1 -1 -1 -2 -2 -2 -2 -3 -5 -5 -4 -4
-17 -18 -19 -18 -18 -15 -15 -14 -10 -8 -6 -5 -4 -3 -4 -2 -2 -3 -2 -3 -3 -3 -4 -3 -3 -3 -4 -3 -3 -3 -3 -3 -2 -2 -2 -2 -3 -3 -3 -3 -4 -4 -4
-18 -19 -19 -19 -19 -19 -17 -15 -15 -17 -16 -16 -14 -11 -7 -5 -2 -1 -2 -2 -2 -3 -4 -4 -3 -3 -4 -4 -4 -4 -3 -2 -3 -3 -2 -3 -3 -3 -4 -4 -4 -4 -4
-20 -21 -22 -21 -20 -18 -17 -17 -17 -16 -16 -18 -16 -17 -16 -13 -6 -5 -2 -2 -2 -3 -3 -5 -4 -3 -3 -3 -3 -4 -4 -4 -3 -3 -3 -3 -4 -4 -4 -4 -4 -4 -4
-19 -20 -20 -20 -20 -19 -18 -17 -16 -16 -16 -17 -17 -16 -16 -16 -15 -7 -5 -5 -5 -5 -5 -5 -5 -3 -3 -3 -3 -3 -3 -3 -3 -3 -3 -3 -4 -4 -4 -4 -5 -5 -5
-18 -18 -17 -18 -18 -18 -18 -17 -16 -16 -15 -13 -14 -15 -14 -12 -13 -14 -7 -6 -5 -5 -6 -5 -5 -3 -3 -3 -3 -3 -3 -3 -3 -3 -3 -4 -4 -4 -4 -5 -5 -5 -5
-14 -15 -15 -15 -16 -16 -15 -14 -13 -12 -12 -11 -11 -12 -11 -10 -11 -8 -7 -5 -5 -5 -5 -4 -4 -4 -3 -3 -4 -4 -3 -3 -3 -3 -4 -4 -4 -4 -4 -5 -5 -6 -6
-11 -11 -12 -12 -12 -12 -11 -10 -10 -10 -10 -10 -10 -10 -10 -11 -10 -8 -7 -7 -5 -4 -4 -4 -4 -4 -4 -4 -4 -4 -4 -4 -3 -4 -4 -5 -5 -5 -5 -5 -6 -6 -6
-10 -10 -9 -10 -10 -9 -9 -9 -8 -8 -8 -8 -8 -8 -9 -11 -12 -9 -8 -8 -7 -4 -3 -4 -4 -4 -4 -4 -4 -5 -4 -4 -4 -4 -4 -5 -5 -5 -5 -5 -6 -6 -6
-9 -9 -8 -8 -8 -8 -7 -7 -7 -7 -7 -8 -7 -7 -8 -9 -9 -8 -7 -7 -5 -4 -3 -3 -4 -4 -4 -4 -4 -5 -5 -5 -4 -5 -5 -5 -5 -5 -5 -6 -6 -6 -6
-8 -8 -8 -7 -7 -7 -6 -6 -6 -6 -6 -6 -6 -7 -10 -10 -7 -7 -6 -6 -6 -5 -4 -4 -4 -4 -4 -4 -4 -5 -5 -5 -5 -6 -5 -6 -5 -6 -6 -6 -6 -6 -6
-9 -7 -6 -6 -6 -6 -6 -6 -6 -6 -6 -6 -6 -7 -11 -11 -11 -7 -7 -7 -7 -6 -5 -4 -5 -5 -5 -4 -4 -5 -5 -6 -6 -6 -6 -6 -6 -5 -6 -6 -6 -6 -7
Wind_Speed
12 15 18 20 21 23 24 25 25 26 25 25 24 23 22 22 22 22 23 23 23 21 20 19 18 18 19 19 19 19 19 18 22 23 19 22 20 18 19 18 17 15 15
15 18 20 22 23 24 24 25 26 26 26 26 25 26 25 25 25 25 25 24 24 25 24 23 21 20 21 21 21 21 20 19 20 25 21 22 21 19 19 19 20 17 15
19 22 23 25 26 25 25 25 24 24 24 25 26 27 27 26 26 26 26 26 26 26 26 26 24 23 23 22 22 22 22 21 21 22 23 23 22 21 20 21 19 19 17
23 25 26 25 25 24 24 24 24 24 24 24 25 25 26 26 25 24 24 25 26 27 26 26 26 27 25 23 23 23 23 23 22 23 24 23 23 21 21 20 20 18 18
25 25 24 23 22 21 21 21 21 21 22 23 24 24 24 25 23 22 22 24 25 27 27 27 27 27 26 25 25 24 24 24 24 24 25 24 23 21 20 20 20 19 19
24 23 22 22 22 22 22 22 22 21 21 22 22 22 22 22 20 21 22 24 25 27 27 28 28 27 26 26 26 25 25 26 25 25 25 25 23 22 21 20 20 19 15
21 21 21 21 22 22 22 22 21 22 21 21 21 20 20 19 18 18 19 22 25 25 26 26 26 27 25 26 26 26 27 27 26 26 27 26 24 23 21 21 19 18 17
20 20 20 20 20 20 21 20 19 19 18 19 19 18 19 18 17 17 17 18 20 22 22 23 24 24 24 23 24 26 28 29 29 27 27 25 25 24 22 21 20 19 20
17 17 18 18 19 20 20 20 20 19 19 18 18 17 18 17 16 15 15 16 17 18 19 20 20 21 22 21 23 26 27 29 30 28 27 27 26 25 24 23 22 20 20
17 18 18 18 19 20 20 20 20 20 19 19 19 18 18 18 16 15 15 15 15 15 16 17 18 19 20 21 22 24 27 27 27 28 26 27 28 27 25 23 21 22 20
19 18 20 20 20 19 19 19 18 18 18 19 20 19 18 18 17 16 16 16 16 17 17 18 18 18 18 19 21 22 24 23 24 27 26 26 27 28 26 23 21 22 23
19 19 18 20 21 18 18 18 16 16 17 19 21 22 20 18 17 16 15 14 15 16 17 17 19 19 19 18 19 20 20 21 24 27 26 27 28 28 26 23 22 21 21
20 20 21 20 21 21 19 17 17 18 18 19 23 24 22 21 19 19 19 19 19 20 21 21 20 20 20 21 20 19 20 22 24 26 28 27 27 26 24 24 24 24 22
22 21 21 22 19 20 20 20 20 20 20 21 23 25 22 20 17 16 16 17 18 18 20 21 22 22 24 24 24 23 23 23 23 25 26 26 25 24 24 25 26 25 26
22 22 22 23 22 21 23 22 23 23 22 24 23 25 24 22 17 15 16 18 19 19 20 21 21 21 22 21 21 21 22 22 23 23 25 26 26 24 25 26 26 29 30
25 25 26 26 26 25 25 26 24 23 24 24 24 23 25 24 21 19 17 19 20 20 21 21 21 18 18 17 18 19 20 20 20 20 21 23 24 24 25 27 29 29 31
27 28 30 30 30 29 28 28 31 30 29 28 26 23 23 23 24 26 25 24 23 22 22 21 22 21 19 17 16 18 19 18 15 17 18 19 19 21 23 26 28 28 29
27 29 29 29 30 31 31 31 31 32 35 35 32 31 28 25 24 23 24 27 28 24 25 26 25 23 22 22 20 18 18 18 17 17 17 17 18 18 20 22 24 29 29
32 32 31 31 32 31 31 32 31 32 34 36 36 34 31 29 24 24 23 25 27 27 28 27 24 24 23 22 22 21 19 17 17 17 17 16 16 17 18 20 21 22 24
33 33 32 32 33 33 32 32 32 32 32 33 34 35 33 31 31 26 24 22 21 23 25 25 24 23 23 22 22 20 20 18 17 17 17 17 16 16 17 17 18 19 20
31 33 33 33 34 34 34 34 33 31 31 32 32 31 30 30 31 31 27 26 24 22 23 23 24 22 22 21 20 19 18 17 17 17 17 17 16 16 15 15 15 16 16
32 33 33 33 33 33 32 32 33 33 32 32 33 32 29 30 30 30 28 27 26 24 22 23 23 22 22 21 19 18 19 18 17 17 17 17 16 14 13 13 14 14 14
31 32 32 32 31 32 32 32 32 32 31 31 31 31 31 30 28 28 27 26 23 22 21 21 21 21 21 21 19 18 18 18 17 17 17 16 15 13 12 12 13 13 13
32 31 30 31 32 33 33 33 32 32 31 30 28 27 28 27 26 27 26 25 21 19 18 18 19 19 20 20 19 17 18 17 16 15 15 15 13 12 11 12 13 12 12
31 31 31 31 31 31 31 31 31 30 28 27 26 27 26 26 26 25 23 21 19 18 17 17 18 17 18 19 17 16 15 14 14 13 12 12 12 11 11 11 12 12 13
31 29 29 29 31 32 33 33 33 32 30 28 26 26 23 23 23 23 22 21 19 18 18 17 15 16 16 17 15 14 13 13 12 11 10 11 11 11 11 11 11 12 13
Wind_Direction
304 303 303 303 302 301 301 300 299 297 296 295 295 293 293 293 292 288 286 281 278 279 280 281 280 279 279 278 278 281 283 278 276 289 288 295 303 305 307 310 311 309 305
304 305 306 305 303 301 299 299 298 297 297 295 293 291 291 291 289 285 283 281 277 275 276 276 277 276 276 276 277 280 283 280 277 285 292 297 301 301 302 303 306 303 301
311 310 309 307 305 303 301 298 296 295 294 293 291 290 290 291 289 286 279 275 276 275 273 273 275 274 275 276 278 279 281 282 281 281 286 290 298 299 300 301 299 298 295
313 312 311 309 306 305 304 302 302 300 299 296 294 293 292 292 292 291 282 276 273 274 274 271 271 270 272 274 274 276 278 281 281 282 284 287 290 295 298 296 295 293 291
315 313 310 308 308 308 305 304 304 304 303 302 301 299 297 294 293 291 284 277 275 274 274 273 273 272 271 270 271 274 275 274 276 277 279 284 287 291 293 291 292 289 289
310 309 309 310 310 309 307 304 302 301 301 300 300 300 300 298 295 286 282 279 276 275 276 275 275 273 270 268 268 269 270 272 273 273 277 279 285 284 286 288 289 292 294
307 307 307 308 309 310 309 307 306 305 303 301 301 301 300 301 297 292 285 280 279 278 278 277 275 275 272 270 270 269 268 268 268 270 272 274 280 282 282 281 280 280 278
308 308 308 309 310 312 313 312 311 309 308 307 306 304 303 304 298 294 290 288 286 286 284 281 277 275 275 275 273 271 270 272 271 269 270 272 272 274 275 275 275 274 272
306 307 310 312 315 316 317 317 316 316 315 314 311 309 307 306 302 300 295 292 288 288 288 285 282 280 279 278 274 272 272 272 272 273 274 272 271 270 272 272 270 270 270
305 309 310 313 316 316 316 316 316 317 319 319 316 314 310 307 305 302 298 294 293 291 289 290 287 284 282 279 275 274 274 276 277 279 275 271 270 268 267 265 265 264 260
304 309 312 312 312 313 312 313 315 319 323 324 321 320 316 310 305 300 296 295 295 295 296 296 294 290 285 283 282 278 280 282 278 274 271 269 266 265 266 265 260 260 260
302 307 307 307 307 306 305 307 310 315 321 324 323 316 310 307 304 300 299 298 296 294 296 296 296 294 292 288 287 290 288 282 274 271 270 266 266 266 267 265 260 260 260
300 303 305 303 302 303 302 301 306 309 316 322 326 321 322 315 300 294 293 293 292 292 292 292 289 287 286 286 287 290 293 285 279 271 272 272 271 271 267 260 257 256 259
301 304 307 304 303 299 296 294 299 302 307 314 327 326 314 320 327 322 314 308 303 299 298 291 287 283 283 283 285 287 286 284 280 275 276 279 274 268 262 256 252 254 256
301 304 306 307 306 304 299 296 293 293 296 302 311 320 314 306 315 319 324 324 318 311 305 301 299 297 296 290 290 285 282 278 275 276 275 276 278 270 261 255 251 254 255
303 305 307 308 308 308 306 302 298 295 294 293 298 301 313 297 294 298 307 313 314 314 304 303 304 304 311 310 304 297 291 286 278 277 276 272 272 271 265 261 259 257 254
305 305 305 306 307 306 306 306 305 302 301 299 297 294 294 301 289 287 293 299 301 307 306 303 296 294 293 294 294 299 298 301 294 280 276 273 270 272 269 265 261 259 255
303 300 299 300 301 302 303 302 301 301 301 301 302 303 301 298 287 288 286 286 288 294 297 300 295 291 288 286 287 288 292 293 292 290 281 274 271 267 269 268 268 259 256
304 302 300 297 295 295 296 297 297 297 297 298 296 296 300 299 292 285 286 280 287 288 292 294 290 289 287 287 287 286 286 288 285 283 284 278 273 270 267 269 270 268 263
299 298 298 296 295 294 295 294 294 294 295 295 295 296 299 300 298 294 285 287 286 288 292 287 292 287 289 287 288 289 285 283 285 282 281 279 276 271 267 266 267 266 261
297 297 296 293 291 293 293 292 292 292 292 292 291 292 296 294 291 288 288 284 286 288 289 286 287 288 291 288 287 289 284 280 280 281 282 283 279 270 267 262 263 265 262
300 298 297 295 293 291 289 289 290 290 291 292 293 294 292 288 282 281 283 281 279 281 282 283 285 287 293 289 287 287 282 277 275 277 278 277 273 268 261 256 256 256 252
303 300 297 294 293 291 289 290 290 291 290 289 290 288 287 286 283 281 281 280 277 272 273 272 281 286 291 290 284 281 278 276 273 270 272 273 268 261 250 249 251 248 241
304 299 294 294 295 295 293 292 292 291 291 291 289 286 284 282 280 281 281 278 275 273 269 270 276 281 288 289 282 278 273 273 272 269 263 261 258 251 240 240 244 240 233
299 298 297 298 298 297 296 295 293 292 291 289 286 286 286 285 282 283 282 281 275 274 271 270 273 276 284 286 280 275 271 268 268 263 253 250 244 240 231 235 236 230 220
299 299 296 295 295 293 294 290 287 290 290 289 285 287 288 292 289 280 278 278 273 269 269 267 273 276 282 285 277 271 269 263 259 259 246 234 236 234 226 225 224 219 211
Height
1513 1511 1510 1507 1505 1502 1500 1497 1494 1491 1488 1486 1484 1482 1480 1478 1476 1474 1472 1471 1470 1469 1468 1467 1466 1466 1464 1463 1462 1462 1461 1459 1456 1453 1452 1450 1448 1446 1443 1442 1440 1439 1437
1509 1507 1505 1502 1499 1496 1494 1491 1488 1486 1483 1480 1478 1476 1474 1472 1470 1468 1466 1465 1464 1463 1463 1462 1461 1460 1459 1459 1457 1456 1455 1454 1452 1449 1448 1446 1444 1443 1441 1439 1437 1436 1435
1505 1503 1500 1497 1494 1491 1488 1485 1482 1479 1476 1474 1471 1469 1467 1465 1463 1461 1460 1459 1457 1457 1457 1456 1455 1455 1454 1453 1452 1451 1450 1449 1447 1445 1444 1442 1441 1439 1437 1435 1434 1432 1431
1501 1498 1495 1492 1488 1484 1482 1479 1476 1473 1470 1468 1465 1463 1460 1458 1457 1455 1453 1451 1451 1450 1449 1449 1449 1448 1448 1448 1446 1446 1445 1443 1442 1440 1438 1438 1437 1436 1434 1432 1430 1429 1428
1496 1493 1490 1487 1483 1480 1477 1474 1470 1467 1464 1462 1459 1457 1454 1452 1450 1448 1446 1445 1443 1443 1442 1442 1441 1441 1442 1442 1441 1440 1439 1438 1437 1436 1433 1432 1431 1431 1429 1428 1426 1426 1425
1492 1489 1486 1483 1480 1477 1473 1469 1466 1462 1459 1456 1453 1450 1447 1445 1443 1442 1440 1438 1437 1436 1435 1435 1434 1434 1434 1434 1434 1434 1434 1432 1432 1431 1430 1428 1427 1426 1425 1425 1423 1423 1422
1487 1484 1482 1479 1475 1473 1469 1465 1461 1458 1454 1450 1447 1445 1442 1440 1437 1435 1434 1432 1431 1430 1429 1428 1428 1427 1427 1426 1427 1426 1426 1426 1426 1426 1424 1424 1423 1422 1420 1419 1419 1418 1418
1483 1480 1477 1475 1472 1468 1465 1462 1458 1454 1450 1446 1443 1440 1437 1434 1432 1430 1428 1426 1425 1424 1423 1422 1421 1421 1421 1420 1420 1419 1418 1418 1418 1419 1418 1419 1418 1417 1416 1415 1414 1414 1413
1478 1475 1473 1471 1467 1464 1460 1458 1454 1450 1446 1442 1439 1436 1433 1430 1427 1425 1424 1422 1420 1418 1417 1416 1416 1415 1415 1414 1414 1412 1411 1410 1410 1411 1411 1411 1411 1411 1411 1410 1409 1409 1408
1474 1472 1469 1465 1463 1460 1456 1454 1451 1447 1443 1440 1436 1433 1430 1427 1424 1421 1419 1417 1416 1414 1412 1411 1410 1409 1408 1407 1406 1406 1404 1405 1404 1403 1404 1404 1404 1404 1404 1404 1405 1405 1405
1468 1465 1465 1462 1457 1454 1452 1449 1446 1443 1439 1436 1434 1430 1427 1423 1420 1418 1415 1413 1411 1409 1408 1407 1405 1404 1402 1401 1399 1399 1398 1398 1397 1396 1396 1396 1396 1396 1397 1398 1399 1399 1400
1463 1462 1457 1456 1455 1449 1446 1445 1442 1439 1435 1432 1429 1427 1423 1420 1416 1414 1412 1409 1407 1405 1404 1402 1400 1399 1397 1396 1395 1394 1392 1391 1390 1388 1388 1388 1389 1390 1391 1392 1392 1393 1394
1459 1455 1455 1450 1448 1447 1441 1439 1437 1435 1431 1428 1424 1421 1418 1415 1412 1410 1407 1405 1403 1400 1399 1398 1395 1393 1392 1390 1389 1388 1386 1385 1383 1382 1381 1381 1382 1384 1385 1386 1386 1386 1388
1455 1449 1447 1447 1441 1441 1438 1434 1432 1430 1428 1424 1420 1417 1414 1411 1408 1405 1402 1400 1398 1395 1393 1391 1389 1386 1386 1384 1383 1382 1381 1380 1378 1376 1375 1375 1375 1376 1377 1378 1379 1380 1381
1449 1445 1441 1439 1436 1432 1432 1428 1426 1424 1424 1420 1415 1412 1410 1408 1406 1402 1399 1396 1394 1391 1388 1385 1383 1380 1377 1377 1376 1375 1375 1374 1371 1370 1369 1368 1367 1369 1370 1371 1372 1373 1373
1444 1440 1436 1433 1431 1427 1424 1422 1419 1418 1417 1414 1411 1408 1405 1402 1401 1398 1394 1392 1390 1387 1384 1380 1377 1375 1373 1371 1370 1370 1369 1367 1365 1363 1362 1361 1360 1362 1364 1364 1365 1366 1367
1437 1434 1430 1426 1424 1421 1418 1416 1412 1410 1407 1406 1404 1402 1400 1397 1395 1393 1390 1387 1384 1382 1378 1375 1372 1370 1369 1367 1366 1365 1363 1361 1359 1357 1355 1355 1355 1356 1357 1357 1359 1360 1361
1431 1428 1424 1421 1418 1415 1412 1409 1406 1402 1398 1395 1394 1393 1391 1390 1388 1385 1383 1380 1377 1374 1372 1369 1367 1365 1364 1362 1361 1359 1357 1355 1353 1352 1350 1349 1350 1350 1351 1351 1352 1353 1355
1423 1420 1417 1413 1410 1407 1405 1402 1399 1395 1391 1388 1385 1383 1383 1381 1379 1378 1376 1372 1369 1366 1365 1363 1360 1359 1358 1356 1354 1352 1350 1349 1348 1347 1345 1345 1344 1345 1344 1345 1346 1347 1349
1413 1410 1408 1404 1401 1398 1395 1393 1390 1387 1383 1380 1377 1375 1374 1372 1368 1368 1367 1365 1362 1360 1357 1355 1354 1353 1351 1349 1347 1345 1343 1343 1342 1341 1340 1340 1339 1339 1339 1340 1341 1342 1343
1404 1401 1398 1394 1391 1388 1386 1383 1380 1377 1375 1371 1369 1367 1367 1364 1360 1358 1358 1356 1354 1352 1351 1348 1347 1345 1344 1342 1340 1339 1337 1337 1336 1336 1335 1334 1334 1334 1334 1335 1336 1337 1338
1395 1391 1388 1385 1382 1379 1376 1374 1371 1368 1365 1362 1359 1357 1357 1355 1352 1350 1348 1347 1346 1344 1343 1341 1340 1338 1337 1335 1334 1332 1331 1331 1330 1330 1329 1329 1329 1328 1329 1330 1331 1332 1334
1386 1382 1379 1376 1373 1370 1367 1364 1361 1358 1355 1353 1350 1348 1346 1344 1342 1340 1339 1338 1337 1336 1335 1334 1332 1331 1330 1329 1327 1326 1325 1325 1325 1324 1324 1324 1324 1324 1324 1325 1327 1328 1329
1377 1373 1370 1367 1364 1360 1357 1353 1350 1347 1345 1342 1340 1338 1337 1335 1333 1331 1330 1330 1329 1328 1327 1326 1325 1324 1323 1322 1321 1320 1320 1319 1319 1319 1319 1319 1319 1319 1320 1321 1323 1325 1326
1369 1364 1361 1358 1354 1351 1348 1345 1342 1339 1336 1333 1331 1329 1328 1326 1324 1323 1323 1322 1321 1320 1319 1319 1318 1317 1317 1315 1315 1314 1314 1314 1314 1314 1314 1314 1315 1316 1317 1318 1321 1322 1324
1359 1356 1353 1349 1346 1343 1340 1337 1333 1331 1328 1326 1324 1322 1320 1318 1317 1316 1315 1314 1314 1313 1313 1313 1312 1311 1310 1309 1309 1309 1309 1309 1310 1310 1311 1311 1312 1313 1314 1316 1318 1320 1322